User: anonymous   Login
Location: Central Coast
(33.3208°S, 151.2336°E)
Time: 15:03:26
(UTC+11:00)
Language:

N. Korean satellite - Orbit

View from above orbital plane
View from above orbital plane
View from above satellite
View from above satellite

Ground track
Ground track

The orbit data is extracted from the following two-line orbital elements,

1 39026U 12072A   17295.57734553 +.00001923 +00000-0 +75822-4 0  9998
2 39026 097.2193 309.0707 0041946 086.0606 274.5427 15.25943848269354
Epoch (UTC): 22 October 2017 13:51:22
Eccentricity: 0.0041946
inclination: 97.2193°
perigee height: 459 km
apogee height: 517 km
right ascension of ascending node: 309.0707°
argument of perigee: 86.0606°
revolutions per day: 15.25943848
mean anomaly at epoch: 274.5427°
orbit number at epoch: 26935

The dashed part of the orbit path shows where the satellite is in the earth's shadow,  

DLR